| time (UTC) | temp F | wind direction | speed MPH | gust MPH | rain 1hr in | rain 24hr in | rain mn in | humidity % | barometer mb |
| 20260901000015 | 80 | 249 | 12.0 | 19.0 | 0.00 | 0.00 | 0.00 | 25 | 1003.9 |
| 20260831234512 | 81 | 273 | 8.0 | 18.0 | 0.00 | 0.00 | 0.00 | 24 | 1004.1 |
| 20260831233009 | 82 | 273 | 9.0 | 16.0 | 0.00 | 0.00 | 0.00 | 24 | 1004.1 |
| 20260831231508 | 82 | 235 | 9.0 | 17.0 | 0.00 | 0.00 | 0.00 | 23 | 1004.2 |
| 20260831230008 | 82 | 251 | 11.0 | 17.0 | 0.00 | 0.00 | 0.00 | 23 | 1004.1 |
| 20260831224506 | 83 | 271 | 3.0 | 12.0 | 0.00 | 0.00 | 0.00 | 22 | 1004.6 |
| 20260831223006 | 83 | 198 | 7.0 | 15.0 | 0.00 | 0.00 | 0.00 | 22 | 1004.7 |
| 20260831221506 | 84 | 202 | 5.0 | 14.0 | 0.00 | 0.00 | 0.00 | 21 | 1004.6 |
| 20260831220003 | 82 | 114 | 4.0 | 15.0 | 0.00 | 0.00 | 0.00 | 23 | 1005.0 |
| 20260831214510 | 84 | 126 | 6.0 | 16.0 | 0.00 | 0.00 | 0.00 | 23 | 1004.8 |
| 20260831213001 | 85 | 185 | 12.0 | 19.0 | 0.00 | 0.00 | 0.00 | 21 | 1005.1 |
| 20260831211601 | 84 | 176 | 12.0 | 18.0 | 0.00 | 0.00 | 0.00 | 21 | 1005.2 |
| 20260831210055 | 83 | 131 | 6.0 | 13.0 | 0.00 | 0.00 | 0.00 | 22 | 1005.6 |
| 20260831204558 | 83 | 190 | 7.0 | 14.0 | 0.00 | 0.00 | 0.00 | 22 | 1005.9 |
| 20260831203052 | 83 | 91 | 3.0 | 12.0 | 0.00 | 0.00 | 0.00 | 22 | 1006.3 |
| 20260831201550 | 81 | 220 | 4.0 | 14.0 | 0.00 | 0.00 | 0.00 | 21 | 1006.6 |
| 20260831200049 | 81 | 174 | 4.0 | 9.0 | 0.00 | 0.00 | 0.00 | 22 | 1006.7 |
| 20260831194546 | 81 | 148 | 10.0 | 17.0 | 0.00 | 0.00 | 0.00 | 21 | 1007.0 |
| 20260831193042 | 79 | 162 | 8.0 | 13.0 | 0.00 | 0.00 | 0.00 | 21 | 1007.2 |
| 20260831191538 | 79 | 178 | 6.0 | 10.0 | 0.00 | 0.00 | 0.00 | 22 | 1007.5 |
| 20260831190054 | 78 | 62 | 2.0 | 9.0 | 0.00 | 0.00 | 0.00 | 24 | 1007.8 |
| 20260831184538 | 78 | 174 | 5.0 | 11.0 | 0.00 | 0.00 | 0.00 | 22 | 1007.9 |
| 20260831183046 | 78 | 139 | 3.0 | 10.0 | 0.00 | 0.00 | 0.00 | 25 | 1007.9 |
| 20260831181530 | 77 | 118 | 1.0 | 5.0 | 0.00 | 0.00 | 0.00 | 28 | 1008.0 |
| 20260831180027 | 76 | 99 | 1.0 | 6.0 | 0.00 | 0.00 | 0.00 | 31 | 1008.1 |
| 20260831174524 | 75 | 91 | 0.0 | 4.0 | 0.00 | 0.00 | 0.00 | 32 | 1008.2 |
| 20260831173022 | 73 | 221 | 2.0 | 7.0 | 0.00 | 0.00 | 0.00 | 33 | 1008.3 |
| 20260831171520 | 72 | 80 | 2.0 | 5.0 | 0.00 | 0.00 | 0.00 | 34 | 1008.5 |
| 20260831170018 | 72 | 212 | 1.0 | 6.0 | 0.00 | 0.00 | 0.00 | 34 | 1008.6 |
| 20260831164514 | 72 | 156 | 0.0 | 5.0 | 0.00 | 0.00 | 0.00 | 35 | 1008.7 |
| 20260831163033 | 71 | 140 | 2.0 | 4.0 | 0.00 | 0.00 | 0.00 | 35 | 1008.8 |
| 20260831161513 | 69 | 193 | 0.0 | 2.0 | 0.00 | 0.00 | 0.00 | 35 | 1008.9 |
| 20260831160008 | 68 | 158 | 0.0 | 2.0 | 0.00 | 0.00 | 0.00 | 38 | 1009.2 |
| 20260831154504 | 67 | 158 | 1.0 | 3.0 | 0.00 | 0.00 | 0.00 | 37 | 1009.3 |
| 20260831153002 | 67 | 152 | 0.0 | 0.0 | 0.00 | 0.00 | 0.00 | 36 | 1009.2 |
| 20260831151558 | 65 | 9 | 0.0 | 1.0 | 0.00 | 0.00 | 0.00 | 36 | 1009.3 |
| 20260831150054 | 62 | 9 | 0.0 | 0.0 | 0.00 | 0.00 | 0.00 | 40 | 1009.3 |
| 20260831144554 | 59 | 8 | 0.0 | 1.0 | 0.00 | 0.00 | 0.00 | 41 | 1009.3 |
| 20260831143101 | 56 | 11 | 0.0 | 0.0 | 0.00 | 0.00 | 0.00 | 43 | 1009.0 |
| 20260831141554 | 55 | 15 | 0.0 | 2.0 | 0.00 | 0.00 | 0.00 | 44 | 1008.9 |
| 20260831140052 | 55 | 354 | 0.0 | 1.0 | 0.00 | 0.00 | 0.00 | 45 | 1008.9 |
| 20260831134552 | 54 | 354 | 0.0 | 2.0 | 0.00 | 0.00 | 0.00 | 46 | 1008.8 |
| 20260831133054 | 54 | 4 | 0.0 | 3.0 | 0.00 | 0.00 | 0.00 | 45 | 1008.8 |
| 20260831131551 | 54 | 2 | 0.0 | 3.0 | 0.00 | 0.00 | 0.00 | 45 | 1008.7 |
| 20260831130054 | 54 | 349 | 1.0 | 3.0 | 0.00 | 0.00 | 0.00 | 45 | 1008.7 |
| 20260831124551 | 54 | 352 | 2.0 | 4.0 | 0.00 | 0.00 | 0.00 | 46 | 1008.8 |
| 20260831123046 | 54 | 351 | 0.0 | 3.0 | 0.00 | 0.00 | 0.00 | 46 | 1008.9 |
| 20260831121545 | 55 | 8 | 1.0 | 3.0 | 0.00 | 0.00 | 0.00 | 44 | 1008.9 |
| 20260831120054 | 54 | 24 | 1.0 | 3.0 | 0.00 | 0.00 | 0.00 | 46 | 1008.9 |
| 20260831114543 | 55 | 31 | 1.0 | 4.0 | 0.00 | 0.00 | 0.00 | 46 | 1008.9 |
| 20260831113050 | 55 | 20 | 0.0 | 2.0 | 0.00 | 0.00 | 0.00 | 45 | 1009.0 |
| 20260831111540 | 56 | 65 | 0.0 | 3.0 | 0.00 | 0.00 | 0.00 | 44 | 1009.1 |
| 20260831110038 | 56 | 329 | 0.0 | 3.0 | 0.00 | 0.00 | 0.00 | 45 | 1009.2 |
| 20260831104537 | 57 | 356 | 1.0 | 4.0 | 0.00 | 0.00 | 0.00 | 42 | 1009.2 |
| 20260831103035 | 57 | 323 | 2.0 | 4.0 | 0.00 | 0.00 | 0.00 | 43 | 1009.2 |
| 20260831101534 | 56 | 318 | 1.0 | 4.0 | 0.00 | 0.00 | 0.00 | 44 | 1009.2 |
| 20260831100031 | 57 | 309 | 1.0 | 5.0 | 0.00 | 0.00 | 0.00 | 43 | 1009.2 |
| 20260831094532 | 58 | 332 | 0.0 | 4.0 | 0.00 | 0.00 | 0.00 | 43 | 1009.3 |
| 20260831093028 | 59 | 312 | 3.0 | 5.0 | 0.00 | 0.00 | 0.00 | 42 | 1009.2 |
| 20260831091528 | 58 | 314 | 1.0 | 3.0 | 0.00 | 0.00 | 0.00 | 43 | 1009.2 |
| 20260831090026 | 59 | 17 | 0.0 | 3.0 | 0.00 | 0.00 | 0.00 | 44 | 1009.2 |
| 20260831084529 | 59 | 1 | 0.0 | 3.0 | 0.00 | 0.00 | 0.00 | 44 | 1009.3 |
| 20260831083024 | 60 | 359 | 0.0 | 3.0 | 0.00 | 0.00 | 0.00 | 42 | 1009.4 |
| 20260831081522 | 61 | 345 | 0.0 | 0.0 | 0.00 | 0.00 | 0.00 | 41 | 1009.5 |
| 20260831080030 | 62 | 10 | 0.0 | 2.0 | 0.00 | 0.00 | 0.00 | 40 | 1009.5 |
| 20260831074520 | 64 | 288 | 1.0 | 2.0 | 0.00 | 0.00 | 0.00 | 38 | 1009.6 |
| 20260831073015 | 61 | 285 | 0.0 | 4.0 | 0.00 | 0.00 | 0.00 | 41 | 1009.5 |
| 20260831071513 | 62 | 348 | 0.0 | 5.0 | 0.00 | 0.00 | 0.00 | 41 | 1009.5 |
| 20260831070013 | 63 | 15 | 1.0 | 4.0 | 0.00 | 0.00 | 0.00 | 40 | 1009.5 |
| 20260831064510 | 64 | 19 | 3.0 | 7.0 | 0.00 | 0.00 | 0.00 | 38 | 1009.6 |
| 20260831063009 | 64 | 356 | 4.0 | 8.0 | 0.00 | 0.00 | 0.00 | 38 | 1009.7 |
| 20260831061508 | 65 | 330 | 4.0 | 9.0 | 0.00 | 0.00 | 0.00 | 37 | 1009.6 |
| 20260831060007 | 65 | 333 | 4.0 | 9.0 | 0.00 | 0.00 | 0.00 | 36 | 1009.7 |
| 20260831054507 | 66 | 297 | 5.0 | 12.0 | 0.00 | 0.00 | 0.00 | 35 | 1009.7 |
| 20260831053019 | 66 | 330 | 5.0 | 8.0 | 0.00 | 0.00 | 0.00 | 35 | 1009.8 |
| 20260831051506 | 66 | 352 | 3.0 | 8.0 | 0.00 | 0.00 | 0.00 | 34 | 1009.9 |
| 20260831050014 | 67 | 340 | 5.0 | 10.0 | 0.00 | 0.00 | 0.00 | 33 | 1009.8 |
| 20260831044505 | 66 | 329 | 4.0 | 6.0 | 0.00 | 0.00 | 0.00 | 34 | 1009.8 |
| 20260831043006 | 66 | 345 | 0.0 | 4.0 | 0.00 | 0.00 | 0.00 | 33 | 1009.9 |
| 20260831041503 | 67 | 342 | 3.0 | 7.0 | 0.00 | 0.00 | 0.00 | 32 | 1009.8 |
| 20260831040002 | 68 | 328 | 2.0 | 6.0 | 0.00 | 0.00 | 0.00 | 32 | 1009.6 |
| 20260831034502 | 69 | 327 | 2.0 | 6.0 | 0.00 | 0.00 | 0.00 | 32 | 1009.3 |
| 20260831033003 | 69 | 326 | 3.0 | 8.0 | 0.00 | 0.00 | 0.00 | 30 | 1009.0 |
| 20260831031501 | 70 | 324 | 4.0 | 9.0 | 0.00 | 0.00 | 0.00 | 30 | 1008.8 |
| 20260831030100 | 71 | 307 | 4.0 | 7.0 | 0.00 | 0.00 | 0.00 | 30 | 1008.7 |
| 20260831024602 | 73 | 323 | 3.0 | 11.0 | 0.00 | 0.00 | 0.00 | 28 | 1008.6 |
| 20260831023059 | 74 | 320 | 5.0 | 11.0 | 0.00 | 0.00 | 0.00 | 27 | 1008.3 |
| 20260831023000 | 74 | 316 | 5.0 | 12.0 | 0.00 | 0.00 | 0.00 | 27 | 1008.3 |
| 20260831021559 | 75 | 311 | 9.0 | 15.0 | 0.00 | 0.00 | 0.00 | 27 | 1008.1 |
| 20260831020058 | 76 | 319 | 6.0 | 17.0 | 0.00 | 0.00 | 0.00 | 27 | 1008.1 |
| 20260831014557 | 78 | 328 | 9.0 | 16.0 | 0.00 | 0.00 | 0.00 | 27 | 1008.0 |
| 20260831013108 | 78 | 300 | 10.0 | 15.0 | 0.00 | 0.00 | 0.00 | 26 | 1008.0 |
| 20260831011557 | 80 | 352 | 6.0 | 13.0 | 0.00 | 0.00 | 0.00 | 25 | 1008.0 |
| 20260831010055 | 81 | 301 | 4.0 | 8.0 | 0.00 | 0.00 | 0.00 | 23 | 1008.2 |
| 20260831004554 | 80 | 338 | 3.0 | 6.0 | 0.00 | 0.00 | 0.00 | 22 | 1008.2 |
| 20260831003103 | 82 | 308 | 1.0 | 7.0 | 0.00 | 0.00 | 0.00 | 22 | 1008.2 |
| 20260831001552 | 84 | 48 | 0.0 | 5.0 | 0.00 | 0.00 | 0.00 | 21 | 1008.0 |